Pogoda w Łodzi

1840 UTC 21 April 2018 EPLL 211830Z 33006KT 290V360 CAVOK 17/04 Q1016

Where pilots are born

  • Daniel from Ireland

    I just wanted to say thank you very much for all your help. Throughout all the training I have done, I have not had a more...

  • Jeremie from Belgium

    "Bartolini Air est une super ecole : les instructeurs et les dirigeants sont a la disposition des eleve-pilotes non...

  • Ismail

    Best school, friendly staff, amazing instructors. Cheers,

22000+

Operations per year

1500+

Number of trained pilots

55+

Nationality students

Jak przystąpić do szkolenia ?